When you browse on this site, cookies collect data to enhance your experience and personalize the content and advertising you see.
Visit our Privacy Policy to learn more. By continuing to use the site, you agree to this use of cookies and data.
  • In Spain
  • List of Countries
  • For 7 days
  • Water Temperature
  • Weather Map
  • Weather Widgets
  • user-avatar
    Login

    Hourly Weather Ghanzi

    Today, 22 February, Saturday

    Time Temperature Precipitation Wind Pressure Humidity
    00:00 +14°C° 0 mm 5 mps 718 mmHg 34%
    01:00 +13°C° 0 mm 5 mps 718 mmHg 38%
    02:00 +12°C° 0 mm 5 mps 718 mmHg 42%
    03:00 +12°C° 0 mm 5 mps 718 mmHg 47%
    04:00 +10°C° 0 mm 5 mps 718 mmHg 51%
    05:00 +11°C° 0 mm 4 mps 718 mmHg 53%
    06:00 +11°C° 0 mm 4 mps 719 mmHg 55%
    07:00 +10°C° 0 mm 4 mps 719 mmHg 57%
    08:00 +13°C° 0 mm 4 mps 720 mmHg 50%
    09:00 +15°C° 0 mm 5 mps 720 mmHg 42%
    10:00 +19°C° 0 mm 6 mps 721 mmHg 35%
    11:00 +20°C° 0 mm 5 mps 720 mmHg 31%
    12:00 +21°C° 0 mm 5 mps 720 mmHg 27%
    13:00 +23°C° 0 mm 5 mps 719 mmHg 23%
    14:00 +23°C° 0 mm 5 mps 719 mmHg 23%
    15:00 +23°C° 0 mm 5 mps 718 mmHg 22%
    16:00 +23°C° 0 mm 5 mps 718 mmHg 21%
    17:00 +21°C° 0 mm 5 mps 718 mmHg 24%
    18:00 +20°C° 0 mm 4 mps 718 mmHg 26%
    19:00 +18°C° 0 mm 4 mps 718 mmHg 29%
    20:00 +17°C° 0 mm 4 mps 719 mmHg 31%
    21:00 +16°C° 0 mm 5 mps 719 mmHg 32%
    22:00 +15°C° 0 mm 5 mps 719 mmHg 34%
    23:00 +14°C° 0 mm 5 mps 719 mmHg 36%

    Tomorrow, 23 February, Sunday

    Time Temperature Precipitation Wind Pressure Humidity
    00:00 +14°C° 0 mm 5 mps 719 mmHg 39%
    01:00 +13°C° 0 mm 5 mps 718 mmHg 42%
    02:00 +12°C° 0 mm 5 mps 718 mmHg 44%
    03:00 +12°C° 0 mm 5 mps 718 mmHg 46%
    04:00 +10°C° 0 mm 5 mps 718 mmHg 48%
    05:00 +10°C° 0 mm 5 mps 719 mmHg 48%
    06:00 +10°C° 0 mm 5 mps 719 mmHg 48%
    07:00 +10°C° 0 mm 5 mps 719 mmHg 48%
    08:00 +13°C° 0 mm 5 mps 720 mmHg 42%
    09:00 +15°C° 0 mm 6 mps 721 mmHg 36%
    10:00 +17°C° 0 mm 6 mps 721 mmHg 31%
    11:00 +19°C° 0 mm 6 mps 721 mmHg 28%
    12:00 +20°C° 0 mm 6 mps 720 mmHg 25%
    13:00 +21°C° 0 mm 6 mps 719 mmHg 22%
    14:00 +21°C° 0 mm 7 mps 719 mmHg 22%
    15:00 +21°C° 0 mm 7 mps 718 mmHg 23%
    16:00 +21°C° 0 mm 7 mps 718 mmHg 23%
    17:00 +18°C° 0 mm 7 mps 718 mmHg 26%
    18:00 +17°C° 0 mm 6 mps 719 mmHg 30%
    19:00 +15°C° 0 mm 6 mps 719 mmHg 33%
    20:00 +14°C° 0 mm 6 mps 719 mmHg 36%
    21:00 +13°C° 0 mm 6 mps 720 mmHg 38%
    22:00 +11°C° 0 mm 6 mps 720 mmHg 41%
    23:00 +10°C° 0 mm 6 mps 720 mmHg 47%

    Day after tomorrow, 24 February, Monday

    Time Temperature Precipitation Wind Pressure Humidity
    00:00 +10°C° 0 mm 6 mps 720 mmHg 54%
    01:00 +9°C° 0 mm 6 mps 720 mmHg 60%
    02:00 +8°C° 0 mm 6 mps 720 mmHg 60%
    03:00 +7°C° 0 mm 6 mps 720 mmHg 59%
    04:00 +7°C° 0 mm 6 mps 720 mmHg 59%
    05:00 +7°C° 0 mm 6 mps 720 mmHg 58%
    06:00 +5°C° 0 mm 7 mps 721 mmHg 56%
    07:00 +5°C° 0 mm 7 mps 721 mmHg 55%
    08:00 +8°C° 0 mm 7 mps 721 mmHg 48%
    09:00 +10°C° 0 mm 8 mps 722 mmHg 40%
    10:00 +12°C° 0 mm 9 mps 722 mmHg 33%
    11:00 +13°C° 0 mm 9 mps 721 mmHg 29%
    12:00 +16°C° 0 mm 9 mps 720 mmHg 25%
    13:00 +17°C° 0 mm 9 mps 720 mmHg 21%
    14:00 +17°C° 0 mm 8 mps 719 mmHg 21%
    15:00 +17°C° 0 mm 8 mps 719 mmHg 21%
    16:00 +17°C° 0 mm 8 mps 719 mmHg 21%
    17:00 +15°C° 0 mm 7 mps 719 mmHg 24%
    18:00 +14°C° 0 mm 5 mps 719 mmHg 28%
    19:00 +12°C° 0 mm 4 mps 720 mmHg 31%
    20:00 +11°C° 0 mm 4 mps 720 mmHg 35%
    21:00 +10°C° 0 mm 4 mps 720 mmHg 38%
    22:00 +9°C° 0 mm 5 mps 721 mmHg 41%
    23:00 +8°C° 0 mm 5 mps 721 mmHg 49%

    25 February, Tuesday

    Time Temperature Precipitation Wind Pressure Humidity
    00:00 +7°C° 0 mm 4 mps 720 mmHg 56%
    01:00 +6°C° 0 mm 4 mps 720 mmHg 63%
    02:00 +6°C° 0 mm 4 mps 720 mmHg 67%
    03:00 +5°C° 0 mm 4 mps 720 mmHg 70%
    04:00 +5°C° 0 mm 4 mps 720 mmHg 74%
    05:00 +5°C° 0 mm 4 mps 720 mmHg 72%
    06:00 +5°C° 0 mm 3 mps 721 mmHg 71%
    07:00 +7°C° 0 mm 3 mps 721 mmHg 69%
    08:00 +8°C° 0 mm 4 mps 721 mmHg 59%
    09:00 +12°C° 0 mm 4 mps 721 mmHg 48%
    10:00 +14°C° 0 mm 5 mps 722 mmHg 37%
    11:00 +16°C° 0 mm 5 mps 721 mmHg 32%
    12:00 +19°C° 0 mm 5 mps 720 mmHg 26%
    13:00 +20°C° 0 mm 5 mps 720 mmHg 21%
    14:00 +20°C° 0 mm 5 mps 719 mmHg 20%
    15:00 +21°C° 0 mm 5 mps 719 mmHg 19%
    16:00 +21°C° 0 mm 5 mps 719 mmHg 18%
    17:00 +19°C° 0 mm 5 mps 719 mmHg 22%
    18:00 +16°C° 0 mm 5 mps 718 mmHg 25%
    19:00 +14°C° 0 mm 4 mps 718 mmHg 28%
    20:00 +14°C° 0 mm 4 mps 719 mmHg 30%
    21:00 +13°C° 0 mm 4 mps 719 mmHg 31%
    22:00 +12°C° 0 mm 3 mps 719 mmHg 33%
    23:00 +12°C° 0 mm 3 mps 719 mmHg 34%

    26 February, Wednesday

    Time Temperature Precipitation Wind Pressure Humidity
    00:00 +11°C° 0 mm 3 mps 718 mmHg 35%
    01:00 +12°C° 0 mm 2 mps 718 mmHg 36%
    02:00 +10°C° 0 mm 3 mps 718 mmHg 36%
    03:00 +10°C° 0 mm 3 mps 718 mmHg 37%
    04:00 +9°C° 0 mm 3 mps 717 mmHg 37%
    05:00 +10°C° 0 mm 3 mps 718 mmHg 37%
    06:00 +10°C° 0 mm 3 mps 718 mmHg 36%
    07:00 +10°C° 0 mm 2 mps 718 mmHg 35%
    08:00 +14°C° 0 mm 2 mps 719 mmHg 31%
    09:00 +16°C° 0 mm 2 mps 719 mmHg 27%
    10:00 +19°C° 0 mm 2 mps 720 mmHg 22%
    11:00 +20°C° 0 mm 2 mps 719 mmHg 20%
    12:00 +23°C° 0 mm 1 mps 718 mmHg 18%
    13:00 +24°C° 0 mm 1 mps 717 mmHg 15%
    14:00 +25°C° 0 mm 1 mps 717 mmHg 15%
    15:00 +25°C° 0 mm 1 mps 716 mmHg 14%
    16:00 +26°C° 0 mm 1 mps 716 mmHg 14%
    17:00 +23°C° 0 mm 1 mps 716 mmHg 17%
    18:00 +20°C° 0 mm 1 mps 716 mmHg 20%
    19:00 +18°C° 0 mm 1 mps 716 mmHg 23%
    20:00 +17°C° 0 mm 2 mps 716 mmHg 23%
    21:00 +17°C° 0 mm 2 mps 716 mmHg 23%
    22:00 +17°C° 0 mm 3 mps 716 mmHg 23%
    23:00 +16°C° 0 mm 3 mps 716 mmHg 24%

    27 February, Thursday

    Time Temperature Precipitation Wind Pressure Humidity
    00:00 +16°C° 0 mm 2 mps 716 mmHg 25%
    01:00 +15°C° 0 mm 2 mps 716 mmHg 27%
    02:00 +14°C° 0 mm 2 mps 716 mmHg 28%
    03:00 +13°C° 0 mm 2 mps 716 mmHg 30%
    04:00 +13°C° 0 mm 2 mps 716 mmHg 32%
    05:00 +13°C° 0 mm 2 mps 716 mmHg 30%
    06:00 +14°C° 0 mm 2 mps 717 mmHg 29%
    07:00 +15°C° 0 mm 2 mps 717 mmHg 28%
    08:00 +17°C° 0 mm 2 mps 718 mmHg 24%
    09:00 +20°C° 0 mm 2 mps 718 mmHg 20%
    10:00 +24°C° 0 mm 2 mps 719 mmHg 16%
    11:00 +25°C° 0 mm 2 mps 718 mmHg 14%
    12:00 +27°C° 0 mm 1 mps 717 mmHg 13%
    13:00 +28°C° 0 mm 1 mps 717 mmHg 11%
    14:00 +28°C° 0 mm 1 mps 716 mmHg 11%
    15:00 +29°C° 0 mm 1 mps 716 mmHg 11%
    16:00 +29°C° 0 mm 1 mps 715 mmHg 10%
    17:00 +27°C° 0 mm 2 mps 716 mmHg 12%
    18:00 +25°C° 0 mm 2 mps 716 mmHg 14%
    19:00 +21°C° 0 mm 3 mps 716 mmHg 16%
    20:00 +21°C° 0 mm 3 mps 716 mmHg 16%
    21:00 +20°C° 0 mm 3 mps 716 mmHg 17%
    22:00 +20°C° 0 mm 3 mps 717 mmHg 18%
    23:00 +19°C° 0 mm 3 mps 717 mmHg 19%
    Show more